Waarnemingen

Advertentie
Mijn weer
Reus, Spanje (8175): temperatuur & dauwpunt: 21.04.2018 08:00:00 - 27.04.2018 08:00:00 (CEST)Reus, Spanje (8175): windsnelheid: 21.04.2018 08:00:00 - 27.04.2018 08:00:00 (CEST)Reus, Spanje (8175): windrichting: 21.04.2018 08:00:00 - 27.04.2018 08:00:00 (CEST)Reus, Spanje (8175): luchtdruk: 21.04.2018 08:00:00 - 27.04.2018 08:00:00 (CEST)Reus, Spanje (8175): zicht: 21.04.2018 08:00:00 - 27.04.2018 08:00:00 (CEST)
Datum & Tijd tt [°C] td [°C] ff [km/u] ff [kn] dd ppp [hPa] vv [km]
27.04.2018 08:00:00 16,1 14,7 5 3 ZW 1012,5 9
27.04.2018 07:00:00 15,6 14,6 4 2 ZW 1012,5 8
27.04.2018 06:00:00 15,6 14,6 4 2 ZZW 1012,6 8
27.04.2018 05:00:00 15,9 14,7 4 2 ZW 1012,9 8
27.04.2018 04:00:00 16,1 14,8 4 2 ZZW 1013,4 7
27.04.2018 03:00:00 15,9 14,5 5 3 ZW 1013,9 7
27.04.2018 02:00:00 15,5 14,7 4 2 WZW 1015,0 7
27.04.2018 01:00:00 15,1 13,7 5 3 ZZW 1015,3 8
27.04.2018 00:00:00 16,2 14,5 4 2 ZW 1015,8 11
26.04.2018 23:00:00 16,7 14,9 8 4 Z 1016,4 10
26.04.2018 22:00:00 16,7 14,8 9 5 Z 1016,2 9
26.04.2018 21:00:00 16,8 14,9 9 5 ZZO 1016,0 10
26.04.2018 20:00:00 17,6 15,1 13 7 Z 1015,5 20
26.04.2018 19:00:00 19,2 15,1 16 9 ZZW 1015,4 16
26.04.2018 18:00:00 21,0 13,9 18 10 ZZW 1014,8 18
26.04.2018 17:00:00 21,7 13,7 26 14 Z 1014,3 30
26.04.2018 16:00:00 24,3 12,4 18 10 Z 1014,4 22
26.04.2018 15:00:00 23,7 12,8 22 12 Z 1014,9 30
26.04.2018 14:00:00 24,9 11,0 15 8 WZW 1015,2 30
26.04.2018 13:00:00 24,2 11,5 9 5 W 1016,2 29
26.04.2018 12:00:00 22,7 10,8 18 10 W 1017,2 30
26.04.2018 11:00:00 21,0 10,6 13 7 WZW 1017,6 30
26.04.2018 10:00:00 19,6 10,3 0 0 N 1017,8 30
26.04.2018 09:00:00 17,2 10,2 0 0 N 1018,2 30
26.04.2018 08:00:00 13,8 10,3 0 0 N 1017,4 25
26.04.2018 07:00:00 13,1 9,0 2 1 W 1016,3 14
26.04.2018 06:00:00 14,9 9,4 4 2 WNW 1016,1 26
26.04.2018 05:00:00 14,7 9,7 5 3 NW 1016,8 12
26.04.2018 04:00:00 15,1 11,6 8 4 WNW 1017,1 16
26.04.2018 03:00:00 16,0 12,0 8 4 N 1017,4 17
26.04.2018 02:00:00 15,4 12,2 4 2 ONO 1017,8 17
26.04.2018 01:00:00 16,3 11,9 4 2 WZW 1017,8 19
26.04.2018 00:00:00 17,4 12,7 8 4 WZW 1017,8 15
25.04.2018 23:00:00 17,7 13,7 5 3 ZW 1018,2 15
25.04.2018 22:00:00 17,9 13,4 4 2 ZW 1017,6 19
25.04.2018 21:00:00 19,2 13,6 5 3 Z 1017,4 28
25.04.2018 20:00:00 21,7 10,3 4 2 O 1016,7 25
25.04.2018 19:00:00 22,2 11,3 4 2 ONO 1016,9 30
25.04.2018 18:00:00 22,3 11,9 15 8 O 1017,3 24
25.04.2018 17:00:00 22,9 13,8 15 8 ZO 1017,5 25
25.04.2018 16:00:00 23,7 12,8 18 10 ZZO 1017,6 21
25.04.2018 15:00:00 25,1 12,7 9 5 ZO 1017,0 22
25.04.2018 14:00:00 24,8 11,4 9 5 ZZO 1017,0 20
25.04.2018 13:00:00 25,4 12,3 13 7 ZZO 1017,1 16
25.04.2018 12:00:00 24,5 11,5 8 4 ZZO 1017,5 20
25.04.2018 11:00:00 24,6 11,2 4 2 Z 1017,4 20
25.04.2018 10:00:00 21,4 11,7 2 1 ONO 1017,5 18
25.04.2018 09:00:00 18,4 11,6 4 2 NO 1017,6 23
25.04.2018 08:00:00 15,0 8,8 4 2 NNO 1017,8 25
25.04.2018 07:00:00 13,6 8,8 15 8 N 1017,1 30
25.04.2018 06:00:00 13,4 9,1 5 3 N 1017,3 20
25.04.2018 05:00:00 13,3 9,2 11 6 NNO 1016,6 26
25.04.2018 04:00:00 13,9 10,4 13 7 N 1016,7 22
25.04.2018 03:00:00 13,4 10,3 0 0 N 1018,2 15
25.04.2018 02:00:00 13,4 10,2 0 0 N 1018,1 20
25.04.2018 01:00:00 14,9 11,0 8 4 N 1018,1 10
25.04.2018 00:00:00 15,6 10,9 5 3 N 1018,6 13
24.04.2018 23:00:00 16,4 11,5 4 2 NNW 1018,5 14
24.04.2018 22:00:00 17,9 11,1 4 2 NO 1017,9 30
24.04.2018 21:00:00 19,1 11,0 0 0 N 1017,7 30
24.04.2018 20:00:00 20,6 11,4 8 4 Z 1017,3 30
24.04.2018 19:00:00 22,6 9,3 2 1 ZZO 1017,5 30
24.04.2018 18:00:00 23,3 10,3 13 7 ZZO 1017,8 28
24.04.2018 17:00:00 24,2 11,1 11 6 Z 1017,9 30
24.04.2018 16:00:00 24,3 9,9 13 7 ZZO 1018,3 30
24.04.2018 15:00:00 24,2 10,9 18 10 ZZO 1018,8 26
24.04.2018 14:00:00 25,2 9,6 11 6 ZO 1019,1 30
24.04.2018 13:00:00 24,8 10,1 9 5 ZO 1019,8 21
24.04.2018 12:00:00 24,3 10,6 4 2 Z 1020,2 27
24.04.2018 11:00:00 23,1 10,9 2 1 ZO 1020,5 21
24.04.2018 10:00:00 20,9 10,4 0 0 N 1020,3 16
24.04.2018 09:00:00 17,1 11,9 0 0 N 1020,1 18
24.04.2018 08:00:00 13,9 10,0 0 0 N 1019,6 18
24.04.2018 07:00:00 12,9 9,4 5 3 NNO 1018,9 27
24.04.2018 06:00:00 12,8 9,5 5 3 N 1018,9 21
24.04.2018 05:00:00 13,0 9,6 4 2 N 1019,1 23
24.04.2018 04:00:00 13,6 10,0 5 3 N 1019,1 26
24.04.2018 03:00:00 14,2 10,6 2 1 N 1019,3 20
24.04.2018 02:00:00 14,6 11,4 0 0 N 1019,7 18
24.04.2018 01:00:00 14,7 11,4 8 4 N 1019,9 16
24.04.2018 00:00:00 15,6 11,7 4 2 NW 1019,9 12
23.04.2018 23:00:00 16,2 12,1 4 2 NW 1019,8 14
23.04.2018 22:00:00 17,7 12,1 2 1 WZW 1019,5 20
23.04.2018 21:00:00 18,7 12,6 2 1 ZZW 1019,2 30
23.04.2018 20:00:00 20,6 11,6 4 2 ZZW 1019,1 30
23.04.2018 19:00:00 22,0 10,3 5 3 OZO 1019,1 30
23.04.2018 18:00:00 22,5 11,6 8 4 ZZO 1018,9 22
23.04.2018 17:00:00 22,9 11,8 11 6 ZO 1018,7 25
23.04.2018 16:00:00 23,6 12,9 11 6 ZZO 1018,7 24
23.04.2018 15:00:00 23,1 12,8 9 5 ZZO 1019,3 27
23.04.2018 14:00:00 22,5 12,1 8 4 ZO 1019,3 30
23.04.2018 13:00:00 22,1 12,2 5 3 ZZO 1019,7 25
23.04.2018 12:00:00 21,5 11,8 9 5 ZZO 1019,7 23
23.04.2018 11:00:00 22,0 11,7 8 4 ZZW 1019,5 20
23.04.2018 10:00:00 20,8 10,0 0 0 N 1019,2 23
23.04.2018 09:00:00 17,3 10,5 0 0 N 1018,9 27
23.04.2018 08:00:00 14,9 10,5 4 2 N 1018,7 25
23.04.2018 07:00:00 13,3 9,8 8 4 N 1018,3 22
23.04.2018 06:00:00 13,3 10,4 4 2 NW 1018,5 18
23.04.2018 05:00:00 13,8 10,0 4 2 N 1018,4 25
23.04.2018 04:00:00 14,1 10,5 8 4 NW 1018,7 21
23.04.2018 03:00:00 13,9 10,4 2 1 NNO 1019,0 27
23.04.2018 02:00:00 14,2 10,6 0 0 N 1019,3 21
23.04.2018 01:00:00 13,7 10,6 4 2 NO 1019,2 22
23.04.2018 00:00:00 14,6 10,7 5 3 NNO 1019,1 20
22.04.2018 23:00:00 16,1 11,2 0 0 N 1019,1 20
22.04.2018 22:00:00 17,3 11,8 4 2 WZW 1018,7 24
22.04.2018 21:00:00 18,2 12,1 5 3 ZW 1018,1 30
22.04.2018 20:00:00 18,9 12,3 4 2 ZZW 1017,7 30
22.04.2018 19:00:00 20,7 11,7 9 5 WZW 1017,6 30
22.04.2018 18:00:00 21,7 13,1 4 2 Z 1017,1 17
22.04.2018 17:00:00 20,9 13,3 13 7 ZW 1017,6 30
22.04.2018 16:00:00 22,3 13,2 9 5 Z 1017,2 27
22.04.2018 15:00:00 22,5 11,6 16 9 Z 1018,2 20
22.04.2018 14:00:00 22,3 12,1 21 11 ZZW 1018,4 30
22.04.2018 13:00:00 22,5 12,1 15 8 ZZW 1018,6 30
22.04.2018 12:00:00 22,0 12,1 11 6 ZZW 1018,6 30
22.04.2018 11:00:00 20,5 11,7 5 3 ZZW 1018,9 20
22.04.2018 10:00:00 18,6 11,5 4 2 ZZW 1018,8 20
22.04.2018 09:00:00 14,9 10,6 0 0 N 1018,5 14
22.04.2018 08:00:00 11,6 9,3 5 3 NNO 1018,2 17
22.04.2018 07:00:00 11,6 8,9 4 2 N 1017,7 21
22.04.2018 06:00:00 12,0 9,2 2 1 N 1017,9 19
22.04.2018 05:00:00 12,7 9,4 9 5 NNW 1018,5 16
22.04.2018 04:00:00 13,0 9,7 8 4 N 1018,9 25
22.04.2018 03:00:00 13,1 9,8 0 0 N 1019,2 10
22.04.2018 02:00:00 14,1 10,2 0 0 N 1019,7 22
22.04.2018 01:00:00 14,7 10,5 4 2 NO 1019,7 16
22.04.2018 00:00:00 15,5 10,6 8 4 N 1019,8 24
21.04.2018 23:00:00 14,9 11,6 2 1 ZZW 1020,1 16
21.04.2018 22:00:00 15,9 11,8 4 2 ZW 1020,0 19
21.04.2018 21:00:00 16,5 12,7 8 4 WZW 1019,5 20
21.04.2018 20:00:00 18,1 11,9 8 4 ZW 1019,2 30
21.04.2018 19:00:00 19,9 11,6 9 5 ZZW 1019,3 30
21.04.2018 18:00:00 20,9 10,2 15 8 ZZW 1019,6 30
21.04.2018 17:00:00 22,8 10,9 15 8 ZZW 1019,5 20
21.04.2018 16:00:00 22,9 10,8 13 7 ZZO 1020,0 30
21.04.2018 15:00:00 23,3 11,9 9 5 Z 1020,5 30
21.04.2018 14:00:00 22,8 10,6 9 5 Z 1020,8 20
21.04.2018 13:00:00 22,3 11,4 9 5 ZZW 1021,2 22
21.04.2018 12:00:00 22,1 11,7 11 6 Z 1021,2 26
21.04.2018 11:00:00 21,6 10,9 4 2 ZO 1020,9 15
21.04.2018 10:00:00 19,4 9,7 4 2 ONO 1020,7 18
21.04.2018 09:00:00 16,2 11,3 4 2 NNO 1020,7 15
21.04.2018 08:00:00 11,7 9,4 4 2 NNO 1020,9 15

tt = temperatuur
td = dauwpunt
ff = windsnelheid
dd = windrichting
ppp = luchtdruk
vv = zicht

Weerstations in de omgeving